map of HKT home
HKT - Airport
Location
City:  Phuket, Phuket, Thailand
Name:Phuket International Airport
ICAO:VTSP
IATA:HKT

Details
Type:Airport (Aerodrome, Airfield)
Use:Public/Civil, International (customs port of entry)
Latitude:806'48"N (8.113200)
Longitude:9819'01"E (98.316872)
Datum:WGS 1984
Elevation:82 ft (25 m)
Variation:0.41W (WMM2015 magnetic declination)
0.02 annual change
Runways:1
Longest:9843 × 148 ft (3000 × 45 m), paved

Time
Time Zone:UTC+7
Local Time:

Weather
METAR:VTSP 100230Z 09007KT 030V140 9999 FEW020 29/23 Q1012 NOSIG
TAF:VTSP 092300Z 1000/1106 10010KT 9999 FEW020
TEMPO 1008/1012 VRB10G20KT 5000 TSRA FEW018CB SCT020 BKN100
BECMG 1016/1018 00000KT 8000
BECMG 1100/1102 10010KT 9999

Related Locations
Nearby:
Farthest:SPYO: 12295 mi / 19787 km
Pacasmayo [Pacasmayo Airport], LAL, PE

Find:

   beyond  
but within

Other Information
Maps:
NOTAMs:
Links:
Sources:

  
  • flag of Thailand
  

Sectional Chart

Flight Planning
at skyvector.com

Satellite Image

Google Maps Satellite view

 

Copyright © 2004-2018 Karl L. Swartz. All rights reserved.
The Great Circle Mapper name and logo are trademarks of the Great Circle Mapper.
All other trademarks mentioned herein belong to their respective owners.
Please see credits for attibutions and further copyright information.

  Follow gcmap on Facebook Follow gcmap on Twitter Follow gcmap on Google+ GCmap on LinkedIn

hCard Microformat

Geo Microformat